Overview Statistics Trail Chart Weather Telemetry Raw packets
 

This is the latest recevied weather packets stored in our database for station/object IONIA-WX. If no packets are shown the sender has not sent any weather packets the latest 10 day(s).

<< 1 2 3 4 5 6 >>
Time Temp. Humidity Pressure Rain* Wind** Luminosity Snow
1788592519 21.67° C 92% 984.6 hPa 0 mm - - -
1788591618 21.67° C 92% 984.6 hPa 0 mm - - -
1788590716 21.67° C 88% 983.4 hPa 0 mm - - -
1788589819 21.67° C 80% 984.4 hPa 0 mm - - -
1788588919 21.67° C 80% 984.4 hPa 0 mm - - -
1788588033 21.67° C 80% 984.4 hPa 0 mm - - -
1788587119 21.67° C 80% 984.4 hPa 0 mm - - -
1788586219 21.67° C 86% 984.3 hPa 0 mm - - -
1788585316 21.11° C 86% 984.3 hPa 0 mm - - -
1788584421 21.11° C 86% 984.3 hPa 0 mm - - -
1788583519 21.67° C 83% 984.8 hPa 0 mm - - -
1788582619 21.67° C 84% 984.9 hPa 0 mm - - -
1788581716 20.56° C 84% 984.8 hPa 0 mm - - -
1788580817 21.11° C 84% 984.8 hPa 0 mm - - -
1788579918 21.11° C 93% 984.6 hPa 0 mm - - -
1788579018 21.11° C 91% 984.6 hPa 0 mm - - -
1788578118 21.11° C 91% 984.6 hPa 0 mm - - -
1788577219 21.67° C 91% 984.6 hPa 0 mm - - -
1788576317 21.67° C 91% 984.6 hPa 0 mm - - -
1788575418 21.67° C 90% 984.2 hPa 0 mm - - -
1788574517 21.67° C 90% 984.2 hPa 0 mm - - -
1788573619 22.22° C 90% 984.2 hPa 0 mm - - -
1788572717 22.22° C 84% 983.6 hPa 0 mm - - -
1788571820 22.22° C 84% 983.6 hPa 0 mm - - -
1788570919 22.22° C 84% 983.6 hPa 0 mm - - -

* Rain latest hour (hover to see other rain measurements)
** Current wind speed in m/s (hover to see current wind gust speed)